Weather in Vyazovka

Russia / Saratov Oblast     51°48′25″N   45°47′10″E
temp.,
°C
wind,
m/s
gust,
m/s
humid.,
%
clouds,
%
prec.,
mm/h
press.,
hPa
HPBL,
m
4 july, mon
mon401:00+14nnw338411 0.0 101224
04:00+14nw35855 0.0 101166
07:00+16nw498292 0.1 1012259
10:00+20n6963100 0.1 10121199
13:00+21n7853100 0.0 10121893
16:00+21nne8947100 0.0 10121951
19:00+19nne59565 0.0 10131254
22:00+15nnw336716 0.0 101448
5 july, tue
tue501:00+13nnw35740 0.0 101472
04:00+11nnw34825 0.0 101550
07:00+14n37775 0.0 1016244
10:00+18nne576144 0.0 10161374
13:00+21nne57479 0.0 10162045
16:00+22nne6744100 0.0 10162028
19:00+18ene575818 0.0 1018763
22:00+13ene337266 0.0 101929
6 july, wed
wed601:00+11nne11765 0.0 102010
04:00+10nw11775 0.0 102010
07:00+14nw11650 0.0 102080
10:00+19w11503 0.0 1020792
13:00+23w11410 0.0 10201380
16:00+24wsw113714 0.0 10191626
19:00+23s124787 0.0 1018757
22:00+16sw22635 0.0 101911
7 july, thu
thu701:00+15wsw22651 0.0 101911
04:00+14w22660 0.0 101915
07:00+17w23630 0.0 102086
10:00+23wsw23470 0.0 1019626
13:00+26wsw21441 0.0 10191406
16:00+27nw11433 0.0 10181961
19:00+26sse335319 0.0 1018162
22:00+20sw22600 0.0 101817
8 july, fri
fri801:00+18w22567 0.0 101812
04:00+17w11615 0.0 101911
07:00+20w115842 0.0 101950
10:00+25sse11485 0.0 1019604
13:00+28se11446 0.0 10181835
16:00+29se324222 0.0 10172026
19:00+27s345475 0.0 1017222
22:00+22wsw116272 0.0 101711